Theta_e
328 328 327 327 326 326 326 325 324 324 323 322 323 322 321 322 322 322 322 322 321 320 320 321 322 324 312 303 307 332 346 343 326 318 319 325 323 327 322 325 330 326 328 329 329 330 328
328 328 327 327 326 326 326 326 326 324 323 322 322 321 320 321 320 320 320 321 320 320 320 321 324 323 307 299 321 333 321 319 313 320 324 325 321 323 326 326 325 328 327 327 327 328 327
327 327 327 326 326 326 326 326 326 325 324 322 322 321 321 320 320 319 319 318 319 320 320 321 324 320 307 308 321 320 310 307 313 321 323 325 322 313 327 323 330 328 323 326 327 328 327
326 326 326 325 326 325 325 325 325 325 324 323 322 321 320 320 319 319 318 317 319 320 320 323 321 312 298 314 316 318 314 312 313 319 319 321 318 308 321 326 325 323 320 312 325 327 328
325 324 325 325 325 324 324 324 324 323 323 322 322 320 320 319 318 318 316 316 319 320 321 325 311 307 303 321 310 315 317 314 316 316 317 325 311 304 305 302 306 313 307 312 318 327 326
324 324 325 325 325 324 323 322 322 322 322 322 320 320 319 318 318 317 316 316 320 320 320 323 319 303 308 307 307 312 316 318 312 309 307 305 301 299 298 299 298 302 307 310 315 320 322
323 324 324 324 324 324 323 322 322 322 322 321 320 320 319 318 318 316 312 307 303 301 309 301 305 306 309 313 310 309 313 313 309 304 297 300 296 294 299 300 304 304 308 313 320 324 319
323 323 323 322 323 322 322 322 322 322 321 321 320 319 318 317 316 315 307 304 305 305 299 306 310 310 313 311 304 308 311 303 302 297 298 296 293 300 302 302 300 299 300 310 318 324 319
323 323 322 322 322 322 321 321 321 321 320 319 319 318 318 317 315 308 304 305 309 309 296 302 305 306 306 307 305 306 308 304 300 298 296 293 297 303 302 299 299 296 303 311 314 321 321
323 322 322 322 321 321 321 320 320 320 320 319 318 318 317 314 306 305 305 308 310 305 293 299 300 307 304 305 301 311 310 306 300 298 297 295 300 301 299 298 298 292 306 314 315 311 305
322 322 321 321 321 321 320 320 320 319 319 319 318 318 316 315 307 306 306 309 309 303 286 303 300 305 300 302 301 304 309 304 299 298 296 295 296 297 297 299 300 298 304 312 314 307 304
322 322 321 321 321 320 319 319 319 319 319 318 317 316 315 309 304 309 311 306 303 292 288 298 300 297 296 297 300 303 304 304 303 299 296 297 300 299 299 302 303 306 304 301 303 303 297
321 321 321 320 320 319 319 318 318 318 318 317 316 314 313 315 303 308 307 303 292 287 299 294 295 295 293 295 296 300 299 297 293 289 287 294 296 299 302 298 302 300 296 290 290 294 296
321 321 320 320 319 319 318 318 318 318 317 316 314 312 312 313 311 308 304 298 288 297 297 300 295 293 294 295 295 297 295 293 294 292 288 288 289 297 302 301 298 296 295 290 286 288 294
320 320 320 320 319 318 318 318 318 317 316 315 312 309 308 310 314 306 301 290 291 296 302 301 294 292 291 295 296 294 293 292 295 294 290 287 291 300 302 301 302 295 292 295 290 287 287
318 318 319 318 318 318 318 318 317 317 316 314 307 306 309 311 311 303 296 292 295 301 302 299 292 293 290 290 291 292 292 295 296 297 294 292 288 294 300 300 298 296 299 292 289 285 283
318 317 317 318 317 317 317 317 317 316 314 312 307 305 310 311 306 299 291 291 297 303 303 298 294 293 292 293 291 288 292 295 297 296 295 291 289 292 294 293 294 293 290 289 290 288 285
316 316 316 316 316 317 317 317 316 313 312 310 306 298 310 307 298 292 292 296 301 300 303 301 298 297 295 295 293 291 291 294 299 299 296 295 288 287 292 295 297 292 290 289 287 285 285
314 314 314 315 315 316 317 317 315 313 312 312 304 303 312 306 293 292 296 301 303 302 301 299 298 298 296 294 290 294 295 299 300 299 297 297 288 285 289 290 295 294 294 288 287 287 286
313 313 313 313 314 315 316 317 316 314 313 309 304 299 302 303 299 297 298 300 301 308 305 303 301 298 295 293 293 294 295 299 301 300 315 302 288 287 286 288 292 293 296 295 289 286 286
312 313 313 312 313 313 315 317 317 316 314 310 304 301 301 299 300 299 299 300 300 301 305 303 298 298 294 292 291 292 295 296 300 311 296 293 289 289 289 295 295 295 297 299 291 290 291
311 311 311 312 312 312 313 315 317 315 314 308 303 302 305 301 301 300 298 298 302 303 302 301 298 302 297 292 295 294 294 293 295 296 296 292 289 292 288 295 296 295 300 306 302 301 308
310 311 311 311 311 312 312 313 316 314 312 311 310 309 307 301 299 298 298 302 303 301 303 305 302 299 297 297 298 296 297 296 295 295 292 291 291 289 286 294 295 291 299 307 310 312 309
310 310 310 311 311 311 311 313 313 314 312 314 314 312 307 300 299 300 303 304 303 303 299 304 303 297 303 302 301 298 297 298 298 294 295 293 292 291 290 291 284 293 309 314 310 311 313
310 310 310 310 310 311 311 311 313 314 314 313 316 312 308 301 302 301 303 301 302 302 300 302 305 302 300 299 296 293 291 291 296 297 296 296 294 291 289 288 292 308 312 311 307 306 313
313 313 313 313 312 312 312 312 312 312 313 313 314 316 307 301 302 306 303 302 297 295 298 302 305 303 296 293 293 290 287 289 290 292 294 295 295 294 290 288 287 295 306 314 312 301 313
313 313 313 313 314 314 314 313 312 312 311 312 312 315 308 301 306 306 302 300 302 299 297 299 302 301 300 291 289 290 290 295 291 290 290 290 291 289 288 287 292 303 309 311 294 297 312
314 314 314 314 314 314 314 314 314 313 313 312 312 315 309 303 305 309 309 306 303 301 297 299 299 298 297 294 294 292 289 294 292 296 295 293 288 287 286 285 286 307 309 298 302 312 314
313 314 314 314 314 314 314 314 315 315 314 315 308 314 315 306 305 310 309 309 309 308 304 300 298 297 298 294 296 296 294 295 291 289 295 295 297 291 291 290 297 306 306 312 313 312 311
Wind_Speed
13 12 13 15 15 12 12 13 15 15 16 17 16 17 17 16 17 18 18 17 16 14 12 12 10 8 2 2 6 5 8 7 6 5 6 6 6 6 6 6 5 3 2 2 7 9 4
15 14 12 12 13 14 15 14 14 18 19 17 17 17 19 17 18 19 20 18 16 13 11 9 8 4 1 2 2 8 8 4 3 5 5 4 5 4 6 4 4 5 2 5 6 9 8
17 17 16 15 11 13 14 15 15 16 17 20 19 17 19 19 18 21 20 20 18 13 10 7 3 2 2 5 3 7 8 6 3 3 4 4 3 2 6 3 6 3 5 9 12 11 8
15 15 15 15 14 14 14 15 15 16 16 17 20 21 19 19 20 20 22 21 18 13 8 5 1 1 6 2 6 5 3 2 3 5 2 8 3 3 3 2 2 3 5 5 5 8 8
14 15 15 14 14 14 15 14 16 16 16 16 18 22 21 20 21 22 22 22 17 7 5 3 0 2 6 4 4 6 6 3 4 3 4 7 3 2 5 4 4 8 2 4 2 3 4
16 16 15 15 14 14 14 15 18 16 15 14 17 19 23 22 22 23 23 17 1 7 2 4 3 2 2 2 3 5 4 2 1 1 3 3 6 4 4 5 3 3 3 5 5 2 2
18 16 15 17 15 14 14 14 16 16 15 15 17 19 22 23 22 21 11 2 5 4 1 5 3 3 4 4 2 2 4 4 1 6 2 5 5 5 11 5 4 1 1 4 4 11 7
16 15 15 15 15 14 13 14 14 15 15 17 21 18 22 25 24 16 2 4 1 1 7 6 4 6 6 2 1 2 5 4 4 4 3 7 4 9 2 4 2 4 1 4 4 16 4
16 15 15 16 16 16 15 16 16 15 16 21 20 22 23 25 25 1 2 3 1 3 3 8 5 4 4 7 5 6 7 3 3 4 4 7 8 4 4 4 4 4 5 5 9 11 1
16 16 16 16 16 16 16 16 17 18 19 19 20 23 22 27 2 5 5 5 7 3 5 6 2 6 3 4 2 5 6 5 1 7 7 5 4 5 5 6 6 3 7 7 8 9 7
16 16 16 16 16 16 16 17 18 18 19 21 20 19 16 8 5 1 4 7 6 6 4 2 3 0 2 7 1 3 4 5 6 4 6 7 3 2 4 8 6 11 8 10 7 5 4
15 16 15 16 16 17 17 17 17 18 20 21 22 19 12 2 1 8 8 7 5 6 1 1 4 4 5 1 2 3 3 4 2 4 1 8 3 4 9 4 8 3 5 9 6 4 1
15 15 15 15 15 15 15 17 17 19 22 23 23 21 5 2 4 5 5 6 6 3 4 2 5 3 4 5 3 6 6 6 5 3 4 5 4 4 4 2 1 7 7 2 2 1 7
14 15 15 14 15 15 16 17 19 20 24 27 27 21 5 6 4 5 4 6 2 3 5 2 1 3 6 6 5 5 5 3 3 4 3 2 7 5 3 7 9 5 9 8 5 5 5
14 15 15 15 14 15 16 17 19 21 25 26 22 3 1 5 9 1 7 3 7 5 1 5 1 4 3 4 4 3 7 7 8 9 8 5 6 4 3 3 8 4 3 4 8 3 3
16 15 14 15 15 15 16 16 17 20 25 25 4 4 5 2 8 5 6 5 4 4 3 3 5 5 6 0 4 7 8 6 6 10 5 4 2 4 5 2 2 5 7 4 4 4 3
16 17 17 15 16 17 16 15 16 19 24 20 4 5 3 4 3 6 4 7 5 5 5 5 3 4 4 3 6 6 7 6 6 4 7 6 6 7 1 3 9 2 2 7 6 5 6
17 17 17 16 16 14 15 14 14 15 23 8 3 4 3 2 4 1 3 6 4 2 3 8 5 9 9 8 6 6 8 10 8 10 10 6 7 3 8 3 5 1 5 6 7 4 2
18 18 18 17 18 15 13 13 12 12 12 3 3 4 5 4 3 3 5 4 3 4 3 2 4 3 3 8 2 5 5 3 6 7 11 9 1 2 10 7 6 8 3 5 3 3 6
18 19 19 19 18 17 14 12 11 10 8 2 2 4 6 5 1 5 2 5 3 4 4 3 5 2 1 3 4 5 4 2 1 3 6 9 4 8 8 7 4 2 4 0 6 4 6
18 18 18 18 17 17 16 11 11 9 7 1 1 4 2 4 2 1 3 2 3 3 3 6 4 4 3 4 2 4 3 1 4 1 3 6 6 4 3 4 4 2 4 4 8 6 7
20 20 19 18 16 16 16 15 10 9 6 1 2 0 4 3 3 3 1 3 1 3 2 4 4 4 4 4 7 7 7 4 6 3 2 3 2 2 3 6 4 2 3 4 3 7 9
20 20 20 19 19 16 13 14 14 9 1 2 2 2 2 3 3 2 3 1 3 2 5 1 6 5 2 3 4 6 7 5 6 10 5 5 7 4 3 1 3 1 4 3 2 5 8
21 22 21 20 19 18 16 13 13 10 7 2 2 2 1 4 3 5 2 1 2 3 4 8 8 4 3 5 4 2 5 7 5 3 4 7 6 3 4 3 3 6 4 14 13 9 8
21 22 21 21 20 18 16 15 14 11 9 4 2 2 3 4 5 4 6 2 5 5 6 5 8 6 6 4 3 5 7 4 4 3 5 4 5 4 6 4 1 3 5 4 7 2 4
22 22 21 21 20 19 16 15 14 13 10 3 3 2 1 1 7 4 3 3 3 2 6 6 5 6 0 3 3 7 6 4 2 3 4 8 6 5 4 6 7 9 2 3 1 3 5
23 23 23 23 23 21 19 17 15 15 11 5 3 6 2 3 4 3 4 4 5 3 2 5 8 7 3 3 2 4 5 7 7 6 5 3 4 3 4 3 5 5 1 4 2 9 9
23 23 22 21 21 22 21 20 18 16 14 7 2 6 4 3 3 3 2 5 2 2 3 3 5 4 3 2 4 4 3 5 4 6 7 5 5 4 4 3 5 4 1 6 6 7 8
20 19 17 17 18 20 20 20 19 17 15 12 3 4 4 3 2 2 5 4 4 5 4 1 3 2 3 3 0 0 3 3 4 4 2 16 13 5 5 7 3 2 0 5 6 10 5
Wind_Direction
348 345 343 345 355 347 339 342 351 350 344 345 343 338 338 334 330 322 321 322 324 321 317 316 319 319 290 7 255 141 145 159 131 136 180 181 173 153 165 171 170 241 295 306 295 271 202
345 347 345 345 350 337 335 337 341 350 348 343 342 340 337 334 329 324 323 322 322 316 310 305 304 306 248 102 126 141 141 143 183 159 201 190 212 198 131 173 213 181 222 276 331 57 148
342 341 343 344 343 332 332 332 331 330 337 343 341 339 336 335 329 325 324 324 318 311 298 293 293 268 31 210 130 150 152 187 155 199 174 228 234 171 143 154 201 182 84 63 42 22 48
345 342 339 339 337 337 334 331 331 329 324 329 337 340 338 333 329 326 323 319 310 303 281 274 183 209 242 233 132 154 211 187 256 223 260 288 302 203 127 224 88 119 45 68 318 54 358
344 345 342 338 335 333 329 333 334 330 325 324 331 335 335 333 328 327 324 314 304 280 213 181 34 60 276 304 145 218 171 169 149 252 286 280 329 100 40 81 15 35 103 105 167 150 89
346 345 341 332 330 328 327 332 338 330 326 326 331 329 333 332 329 328 325 312 116 116 186 199 253 0 298 295 213 179 184 260 177 246 11 54 45 63 32 71 203 205 172 166 167 222 153
344 342 340 337 335 330 328 328 331 328 328 330 333 331 331 331 326 328 335 42 20 4 98 218 215 246 269 282 248 178 143 120 39 44 122 3 67 201 214 176 138 67 262 56 125 184 144
344 336 340 342 341 335 329 326 327 326 329 335 336 333 333 329 325 326 160 62 102 165 319 235 237 277 267 212 188 267 112 131 130 172 87 21 247 239 121 224 245 230 291 166 53 144 125
340 339 340 345 346 338 335 331 329 327 332 338 334 338 335 329 323 89 317 232 312 240 114 297 193 197 216 138 200 213 130 146 133 137 153 167 229 121 166 250 206 243 163 195 165 171 128
339 340 340 341 340 338 335 332 331 333 333 334 336 337 339 328 47 327 296 304 336 176 67 285 242 265 135 135 275 202 174 141 79 188 172 229 249 214 228 240 152 258 209 163 147 138 198
339 340 339 339 337 336 335 334 332 329 329 333 329 333 337 333 295 276 289 322 298 56 73 174 223 271 137 138 254 234 167 64 186 185 102 249 290 215 229 224 159 235 177 181 183 117 90
336 337 337 337 337 335 335 332 327 326 328 329 325 327 335 89 281 248 307 311 59 43 167 229 181 168 107 54 293 22 134 72 155 197 89 241 249 207 208 243 180 279 86 42 46 78 114
334 332 336 338 338 336 332 328 326 328 327 325 321 317 288 242 234 318 311 42 44 135 354 238 206 159 171 172 235 170 171 187 169 91 348 314 257 257 187 300 105 82 70 6 19 48 219
333 332 332 336 338 336 332 333 332 330 328 328 322 315 194 213 248 335 47 53 170 217 236 43 153 74 180 162 238 174 115 210 210 107 112 132 325 189 191 180 183 181 148 152 195 185 242
332 334 332 334 336 335 334 332 331 330 329 328 319 342 249 258 192 9 72 88 210 206 303 328 21 133 244 221 174 132 183 215 206 167 161 157 266 293 239 201 139 209 151 174 100 2 78
331 332 332 336 334 332 330 330 331 332 330 334 335 352 275 132 154 72 78 238 242 221 9 7 196 165 201 298 157 164 184 217 216 183 147 208 298 240 288 103 43 156 158 76 19 171 220
328 330 330 331 335 338 334 330 334 338 333 328 21 6 277 188 82 53 163 230 264 259 46 359 331 290 194 201 185 185 228 261 188 158 141 141 124 273 61 190 192 50 52 45 112 125 159
327 326 327 327 328 329 332 331 338 345 337 37 10 348 311 34 52 26 177 200 254 298 273 250 199 204 195 192 205 210 219 214 178 158 160 195 144 221 230 265 257 118 142 135 130 240 162
325 325 323 323 326 324 327 328 335 349 18 334 356 268 309 102 190 259 294 294 265 296 290 264 280 248 179 177 221 185 215 276 179 159 163 184 46 37 336 356 358 65 46 121 104 79 196
325 325 323 322 323 323 321 323 330 342 7 46 19 332 313 44 51 134 14 271 290 295 279 292 268 231 257 194 212 202 204 5 45 243 121 91 123 154 191 203 175 15 330 182 139 136 181
322 321 321 321 319 318 316 311 320 332 344 52 125 251 218 295 317 335 203 240 265 314 352 1 341 56 260 252 130 197 199 137 22 173 47 111 152 156 185 156 145 181 308 306 205 200 159
317 315 314 313 313 315 314 311 306 315 335 96 223 254 350 287 307 309 222 240 311 359 268 295 341 289 329 214 200 198 172 189 185 196 93 6 155 127 129 206 152 138 291 317 314 123 75
310 309 309 308 307 305 305 305 304 295 260 227 264 295 150 246 318 39 246 5 13 12 286 351 325 283 277 227 245 256 224 171 177 155 152 120 128 99 201 306 125 97 218 136 52 359 156
309 306 304 301 300 299 296 290 291 278 228 293 233 168 223 263 201 205 249 354 308 340 265 304 301 286 262 304 242 34 62 91 117 68 136 134 108 117 147 86 194 249 302 121 101 45 14
304 301 297 296 293 292 289 282 279 278 240 229 285 230 206 235 204 261 265 253 321 288 247 252 271 233 358 331 69 27 339 55 8 54 92 110 121 98 130 164 119 21 217 160 142 33 3
297 292 289 283 278 272 270 271 269 270 260 207 213 255 200 252 219 211 213 191 214 258 312 261 307 309 57 83 93 139 217 168 230 129 18 79 57 111 131 133 198 213 264 103 145 137 169
297 290 284 278 274 271 264 257 252 255 250 211 228 180 185 230 249 185 185 188 152 143 216 302 323 336 41 101 117 181 205 188 176 167 164 38 55 155 129 170 278 257 163 325 203 209 152
310 302 289 279 271 266 261 254 247 241 241 204 214 184 184 222 269 234 221 206 136 117 162 274 353 316 10 97 145 215 136 227 149 164 166 199 142 215 91 106 246 201 350 169 189 68 129
328 326 316 296 282 267 259 251 243 237 233 203 228 192 185 214 288 314 271 261 199 197 145 248 209 292 252 88 43 150 53 335 163 190 111 205 221 185 175 207 256 319 276 108 107 119 146